Dawson, IA

11:45 PM CDT on September 28, 2016 (GMT -0500)
Perry Municipal

Weather History for KPRO - March, 2013

Change the Weather History Date:

Friday, March 29, 2013

  Actual Average Record
Temperature  
Mean Temperature 46 °F -  
Max Temperature 61 °F 53 °F 81 °F (1986)
Min Temperature 30 °F 32 °F 5 °F (1969)
Degree Days  
Heating Degree Days 20    
Moisture  
Dew Point 34 °F    
Average Humidity 68    
Maximum Humidity 96    
Minimum Humidity 35    
Precipitation  
Precipitation 0.00 in - - ()
Sea Level Pressure  
Sea Level Pressure 30.19 in    
Wind  
Wind Speed 7 mph (SE)    
Max Wind Speed 13 mph    
Max Gust Speed 18 mph    
Visibility 9 miles    
Events      
Averages and records for this station are not official NWS values.
T = Trace of Precipitation, MM = Missing Value Source: NWS Daily Summary

Daily Weather History Graph

Daily Weather History Graph

Search for Another Location

Airport or City:

Trip Planner

Search our weather history database for the weather conditions in past years. The results will help you decide how hot, cold, wet, or windy it might be!

Date:

Astronomy

Mar. 29, 2013 Rise Set
Actual Time 7:04 AM CDT 7:39 PM CDT
Civil Twilight 6:36 AM CDT 8:07 PM CDT
Nautical Twilight 6:03 AM CDT 8:40 PM CDT
Astronomical Twilight 5:29 AM CDT 9:14 PM CDT
Moon 10:43 PM CDT 8:10 AM CDT
Length of Visible Light 13h 31m
Length of Day
12h 35m
Waning Gibbous, 93% of the Moon is Illuminated
Mar 29
Waning Gibbous
Apr 2
Last Quarter
Apr 10
New
Apr 18
First Quarter
Apr 25
Full

Hourly Weather History & Observations

Time (CDT) Temp. Windchill Dew Point Humidity Pressure Visibility Wind Dir Wind Speed Gust Speed Precip Events Conditions
12:15 AM 37.4 °F 31.4 °F 32.9 °F 84% 30.24 in 10.0 mi ESE 8.1 mph - N/A   Clear
12:35 AM 36.7 °F 32.0 °F 32.2 °F 84% 30.24 in 10.0 mi ESE 5.8 mph - N/A   Clear
12:55 AM 37.0 °F 31.6 °F 32.0 °F 82% 30.25 in 10.0 mi ESE 6.9 mph - N/A   Clear
1:15 AM 36.9 °F 32.2 °F 32.0 °F 83% 30.25 in 10.0 mi SE 5.8 mph - N/A   Clear
1:35 AM 35.6 °F 30.7 °F 31.5 °F 85% 30.24 in 10.0 mi ESE 5.8 mph - N/A   Clear
1:55 AM 34.5 °F 29.4 °F 31.5 °F 89% 30.25 in 10.0 mi ESE 5.8 mph - N/A   Clear
2:15 AM 34.2 °F 29.0 °F 31.1 °F 89% 30.24 in 10.0 mi ESE 5.8 mph - N/A   Clear
2:35 AM 34.0 °F 27.2 °F 31.5 °F 90% 30.24 in 10.0 mi East 8.1 mph - N/A   Clear
2:55 AM 33.8 °F 28.6 °F 30.9 °F 89% 30.24 in 10.0 mi East 5.8 mph - N/A   Clear
3:15 AM 32.9 °F 26.7 °F 30.7 °F 92% 30.23 in 10.0 mi East 6.9 mph - N/A   Clear
3:35 AM 32.7 °F 28.3 °F 30.4 °F 91% 30.23 in 10.0 mi East 4.6 mph - N/A   Clear
3:55 AM 32.5 °F 27.1 °F 30.6 °F 92% 30.23 in 10.0 mi East 5.8 mph - N/A   Clear
4:15 AM 32.2 °F 27.7 °F 30.4 °F 93% 30.22 in 7.0 mi ESE 4.6 mph - N/A   Clear
4:35 AM 32.0 °F 28.7 °F 30.2 °F 93% 30.22 in 7.0 mi East 3.5 mph - N/A   Clear
4:55 AM 32.2 °F 27.7 °F 30.2 °F 92% 30.22 in 7.0 mi East 4.6 mph - N/A   Clear
5:15 AM 32.0 °F 26.4 °F 30.0 °F 92% 30.22 in 7.0 mi ESE 5.8 mph - N/A   Clear
5:35 AM 31.1 °F 26.4 °F 29.8 °F 95% 30.22 in 7.0 mi East 4.6 mph - N/A   Clear
5:55 AM 31.8 °F 27.3 °F 30.0 °F 93% 30.22 in 7.0 mi East 4.6 mph - N/A   Clear
6:15 AM 32.0 °F 28.7 °F 30.2 °F 93% 30.23 in 7.0 mi East 3.5 mph - N/A   Clear
6:35 AM 31.6 °F 28.3 °F 29.8 °F 93% 30.23 in 7.0 mi East 3.5 mph - N/A   Clear
6:55 AM 31.3 °F 27.9 °F 29.7 °F 94% 30.23 in 7.0 mi ESE 3.5 mph - N/A   Clear
7:15 AM 30.2 °F 25.4 °F 28.9 °F 95% 30.24 in 4.0 mi ESE 4.6 mph - N/A   Clear
7:35 AM 30.4 °F 23.6 °F 29.5 °F 96% 30.24 in 3.0 mi East 6.9 mph - N/A   Clear
7:55 AM 32.0 °F 26.4 °F 30.9 °F 96% 30.24 in 4.0 mi ESE 5.8 mph - N/A   Clear
8:15 AM 33.6 °F 28.4 °F 32.0 °F 94% 30.25 in 5.0 mi ESE 5.8 mph - N/A   Clear
8:35 AM 34.9 °F 29.0 °F 32.2 °F 90% 30.26 in 5.0 mi East 6.9 mph - N/A   Clear
8:55 AM 36.5 °F 31.8 °F 33.1 °F 87% 30.26 in 7.0 mi ESE 5.8 mph - N/A   Clear
9:15 AM 38.5 °F 33.4 °F 33.4 °F 82% 30.26 in 7.0 mi ESE 6.9 mph - N/A   Clear
9:35 AM 40.8 °F 36.9 °F 34.3 °F 78% 30.26 in 10.0 mi ESE 5.8 mph - N/A   Clear
9:55 AM 43.0 °F 38.8 °F 34.7 °F 73% 30.26 in 10.0 mi SE 6.9 mph - N/A   Clear
10:15 AM 44.6 °F 39.2 °F 35.6 °F 71% 30.26 in 10.0 mi SSE 10.4 mph - N/A   Clear
10:35 AM 46.4 °F 41.5 °F 36.3 °F 68% 30.26 in 10.0 mi SSE 10.4 mph - N/A   Clear
10:55 AM 48.2 °F - 36.5 °F 64% 30.26 in 10.0 mi SSE 10.4 mph 16.1 mph N/A   Clear
11:15 AM 50.0 °F - 37.0 °F 61% 30.26 in 10.0 mi SSE 9.2 mph - N/A   Clear
11:35 AM 51.1 °F - 37.2 °F 59% 30.26 in 10.0 mi SSE 8.1 mph - N/A   Clear
11:55 AM 52.5 °F - 37.2 °F 56% 30.25 in 10.0 mi SSE 9.2 mph - N/A   Clear
12:15 PM 54.0 °F - 37.8 °F 54% 30.24 in 10.0 mi South 11.5 mph - N/A   Clear
12:35 PM 54.7 °F - 37.2 °F 52% 30.24 in 10.0 mi SSE 11.5 mph 18.4 mph N/A   Clear
12:55 PM 55.8 °F - 35.4 °F 46% 30.24 in 10.0 mi SE 9.2 mph - N/A   Clear
1:15 PM 55.9 °F - 36.1 °F 47% 30.23 in 10.0 mi SSE 10.4 mph - N/A   Clear
1:35 PM 56.8 °F - 35.4 °F 45% 30.22 in 10.0 mi ESE 11.5 mph - N/A   Clear
1:55 PM 57.4 °F - 34.7 °F 43% 30.21 in 10.0 mi SSE 12.7 mph 17.3 mph N/A   Clear
2:15 PM 58.3 °F - 35.4 °F 42% 30.20 in 10.0 mi SE 12.7 mph 17.3 mph N/A   Clear
2:35 PM 59.0 °F - 34.9 °F 40% 30.19 in 10.0 mi SE 10.4 mph 17.3 mph N/A   Clear
2:55 PM 59.5 °F - 34.5 °F 39% 30.18 in 10.0 mi SSE 11.5 mph - N/A   Clear
3:15 PM 59.9 °F - 34.7 °F 39% 30.17 in 10.0 mi SSE 10.4 mph - N/A   Clear
3:35 PM 60.1 °F - 34.9 °F 39% 30.16 in 10.0 mi SSE 9.2 mph - N/A   Clear
3:55 PM 60.8 °F - 34.7 °F 38% 30.16 in 10.0 mi SSE 9.2 mph - N/A   Clear
4:15 PM 61.2 °F - 36.1 °F 39% 30.15 in 10.0 mi SSE 10.4 mph - N/A   Clear
4:35 PM 61.3 °F - 33.6 °F 35% 30.14 in 10.0 mi SSE 11.5 mph 16.1 mph N/A   Clear
4:55 PM 61.3 °F - 33.1 °F 35% 30.14 in 10.0 mi SE 10.4 mph - N/A   Clear
5:15 PM 61.2 °F - 33.6 °F 36% 30.13 in 10.0 mi SSE 9.2 mph - N/A   Clear
5:35 PM 61.2 °F - 33.3 °F 35% 30.14 in 10.0 mi SSE 10.4 mph - N/A   Clear
5:55 PM 61.0 °F - 33.1 °F 35% 30.13 in 10.0 mi South 10.4 mph - N/A   Clear
6:15 PM 60.4 °F - 33.8 °F 37% 30.13 in 10.0 mi SSE 11.5 mph - N/A   Clear
6:35 PM 59.2 °F - 34.9 °F 40% 30.13 in 10.0 mi SSE 9.2 mph - N/A   Clear
6:55 PM 57.0 °F - 37.2 °F 48% 30.13 in 10.0 mi SSE 8.1 mph - N/A   Clear
7:15 PM 54.3 °F - 38.5 °F 55% 30.13 in 10.0 mi SSE 8.1 mph - N/A   Clear
7:35 PM 51.1 °F - 38.7 °F 63% 30.11 in 10.0 mi SE 8.1 mph - N/A   Clear
7:55 PM 49.3 °F - 37.6 °F 64% 30.11 in 10.0 mi SSE 9.2 mph - N/A   Clear
8:15 PM 48.2 °F - 36.5 °F 64% 30.11 in 10.0 mi SE 9.2 mph - N/A   Clear
8:35 PM 46.8 °F - 35.6 °F 65% 30.11 in 10.0 mi SE 9.2 mph - N/A   Clear
8:55 PM 47.3 °F - 35.6 °F 64% 30.11 in 10.0 mi SE 10.4 mph - N/A   Clear
9:15 PM 48.0 °F - 35.1 °F 61% 30.11 in 10.0 mi SSE 10.4 mph - N/A   Clear
9:35 PM 46.4 °F 41.5 °F 35.2 °F 65% 30.11 in 10.0 mi SSE 10.4 mph - N/A   Clear
9:55 PM 46.4 °F 41.5 °F 35.1 °F 65% 30.11 in 10.0 mi SSE 10.4 mph - N/A   Clear
10:15 PM 45.3 °F 40.6 °F 35.1 °F 67% 30.11 in 10.0 mi SSE 9.2 mph - N/A   Clear
10:35 PM 44.6 °F 39.2 °F 35.1 °F 69% 30.11 in 10.0 mi SSE 10.4 mph - N/A   Clear
10:55 PM 45.7 °F 41.5 °F 34.7 °F 65% 30.11 in 10.0 mi SSE 8.1 mph - N/A   Clear
11:15 PM 46.4 °F 41.5 °F 34.7 °F 64% 30.11 in 10.0 mi SSE 10.4 mph - N/A   Clear
11:35 PM 45.5 °F 40.8 °F 35.1 °F 67% 30.10 in 10.0 mi SSE 9.2 mph - N/A   Clear
11:55 PM 44.8 °F 39.4 °F 34.7 °F 68% 30.09 in 10.0 mi SSE 10.4 mph - N/A   Clear